+ View the NASA Portal
+ Center for Near-Earth Object Studies
IMPORTANT:
The SSD Announcement email list is now available. Major changes are coming in the near future, including possible hostname and/or URL changes. To be notified of such changes, subscribe to this email list.
Please visit
this page
for more details.
Don't show this message again
JPL Small-Body Database Browser
Search:
[
help
]
214625 (2006 RC91)
Classification:
Main-belt Asteroid
SPK-ID:
2214625
[
Ephemeris
|
Orbit Diagram
|
Orbital Elements
|
Mission Design
|
Physical Parameters
|
Discovery Circumstances
|
Close-Approach Data
]
[ show orbit diagram ]
Orbital Elements at Epoch 2458600.5 (2019-Apr-27.0) TDB
Reference:
JPL 12
(heliocentric ecliptic J2000)
Element
Value
Uncertainty (1-sigma)
Units
e
.08658070253246153
7.6945e-08
a
2.683960974471531
2.1556e-08
au
q
2.451581747732076
2.0745e-07
au
i
4.147395342242883
7.7168e-06
deg
node
190.5472489196758
8.0037e-05
deg
peri
147.0395112922011
8.7012e-05
deg
M
339.8623289478623
3.2396e-05
deg
t
p
2458690.339942165333
(2019-Jul-25.83994217)
0.00014446
TDB
period
1606.063536135014
4.40
1.9348e-05
5.297e-08
d
yr
n
.2241505344591402
2.7003e-09
deg/d
Q
2.916340201210987
2.3422e-08
au
Orbit Determination Parameters
# obs. used (total)
155
data-arc span
7126 days (19.51 yr)
first obs. used
2000-04-01
last obs. used
2019-10-05
planetary ephem.
DE431
SB-pert. ephem.
SB431-N16
condition code
0
norm. resid. RMS
.59396
source
ORB
producer
Otto Matic
solution date
2019-Nov-07 23:54:58
Additional Information
Earth MOID
= 1.44282 au
Jupiter MOID
= 2.39022 au
T_jup
= 3.366
[ show covariance matrix ]
[
Ephemeris
|
Orbit Diagram
|
Orbital Elements
|
Mission Design
|
Physical Parameters
|
Discovery Circumstances
|
Close-Approach Data
]
Physical Parameter Table
Parameter
Symbol
Value
Units
Sigma
Reference
Notes
absolute magnitude
H
16.8
n/a
MPO413069
214625 (2006 RC91)
Discovered 2006-Sep-15 by Spacewatch at Kitt Peak
Reference:
20090509/Numbers.arc
Last Updated:
2009-05-11
[ show close-approach data ]
[
Ephemeris
|
Orbit Diagram
|
Orbital Elements
|
Mission Design
|
Physical Parameters
|
Discovery Circumstances
|
Close-Approach Data
]
2019-Dec-16 08:03 UT
(server date/time)
Site Manager:
Ryan S. Park
Webmaster
:
Alan B. Chamberlin